owner,sensor,date,latitude,longitude,vertical_datum,direction_of_sea_water_velocity,sea_water_speed,upward_sea_water_velocity,qcFlag 
TABS,ioos:station:wmo:42047:1,2015-09-01T00:00:00Z,27.8966,-93.5973,2.0,325.8877545,15.79829105,-99999.0,'11111222,11111222,99999999' 
TABS,ioos:station:wmo:42047:1,2015-09-01T00:30:00Z,27.8966,-93.5973,2.0,284.0993182,8.867107758,-99999.0,'11133222,11111222,99999999' 
TABS,ioos:station:wmo:42047:1,2015-09-01T01:00:00Z,27.8966,-93.5973,2.0,338.198852,7.000714249,-99999.0,'11133222,11111222,99999999' 
TABS,ioos:station:wmo:42047:1,2015-09-01T01:30:00Z,27.8966,-93.5973,2.0,313.4187842,16.39698143,-99999.0,'11111222,11111222,99999999' 
TABS,ioos:station:wmo:42047:1,2015-09-01T02:00:00Z,27.8966,-93.5973,2.0,314.4042837,21.75178154,-99999.0,'11111222,11111222,99999999' 
TABS,ioos:station:wmo:42047:1,2015-09-01T02:30:00Z,27.8966,-93.5973,2.0,318.3731538,22.35501286,-99999.0,'11111222,11111222,99999999' 
TABS,ioos:station:wmo:42047:1,2015-09-01T03:00:00Z,27.8966,-93.5973,2.0,321.1704764,26.31539473,-99999.0,'11111222,11111222,99999999' 
TABS,ioos:station:wmo:42047:1,2015-09-01T03:30:00Z,27.8966,-93.5973,2.0,330.9305687,25.78861183,-99999.0,'11111222,11111222,99999999' 
TABS,ioos:station:wmo:42047:1,2015-09-01T04:00:00Z,27.8966,-93.5973,2.0,329.8669503,25.7960966,-99999.0,'11111222,11111222,99999999' 
TABS,ioos:station:wmo:42047:1,2015-09-01T04:30:00Z,27.8966,-93.5973,2.0,332.2568634,31.74993543,-99999.0,'11111222,11111222,99999999' 
TABS,ioos:station:wmo:42047:1,2015-09-01T05:00:00Z,27.8966,-93.5973,2.0,329.6438087,30.09626223,-99999.0,'11111222,11111222,99999999' 
TABS,ioos:station:wmo:42047:1,2015-09-01T05:30:00Z,27.8966,-93.5973,2.0,329.97659,33.13627167,-99999.0,'11111222,11111222,99999999' 
TABS,ioos:station:wmo:42047:1,2015-09-01T06:00:00Z,27.8966,-93.5973,2.0,334.7778423,31.49248323,-99999.0,'11111222,11111222,99999999' 
TABS,ioos:station:wmo:42047:1,2015-09-01T06:30:00Z,27.8966,-93.5973,2.0,329.5281726,30.97892994,-99999.0,'11111222,11111222,99999999' 
TABS,ioos:station:wmo:42047:1,2015-09-01T07:00:00Z,27.8966,-93.5973,2.0,332.7777734,29.62090647,-99999.0,'11111222,11111222,99999999' 
TABS,ioos:station:wmo:42047:1,2015-09-01T07:30:00Z,27.8966,-93.5973,2.0,337.5843156,33.06867097,-99999.0,'11111222,11111222,99999999' 
TABS,ioos:station:wmo:42047:1,2015-09-01T08:00:00Z,27.8966,-93.5973,2.0,338.0370917,32.88677546,-99999.0,'11111222,11111222,99999999' 
TABS,ioos:station:wmo:42047:1,2015-09-01T08:30:00Z,27.8966,-93.5973,2.0,330.7327961,32.15464041,-99999.0,'11111222,11111222,99999999' 
TABS,ioos:station:wmo:42047:1,2015-09-01T09:00:00Z,27.8966,-93.5973,2.0,330.7815874,30.52375468,-99999.0,'11111222,11111222,99999999' 
TABS,ioos:station:wmo:42047:1,2015-09-01T09:30:00Z,27.8966,-93.5973,2.0,334.4388133,30.12892962,-99999.0,'11111222,11111222,99999999' 
TABS,ioos:station:wmo:42047:1,2015-09-01T10:00:00Z,27.8966,-93.5973,2.0,340.0316872,20.2047049,-99999.0,'11111222,11111222,99999999' 
TABS,ioos:station:wmo:42047:1,2015-09-01T10:30:00Z,27.8966,-93.5973,2.0,342.4606734,14.36798177,-99999.0,'11111222,11111222,99999999' 
TABS,ioos:station:wmo:42047:1,2015-09-01T11:00:00Z,27.8966,-93.5973,2.0,343.9735738,14.52452065,-99999.0,'11111222,11111222,99999999' 
TABS,ioos:station:wmo:42047:1,2015-09-01T11:30:00Z,27.8966,-93.5973,2.0,4.761136089,17.59069356,-99999.0,'11111222,11111222,99999999' 
TABS,ioos:station:wmo:42047:1,2015-09-01T12:00:00Z,27.8966,-93.5973,2.0,3.219357533,21.01315778,-99999.0,'11111222,11111222,99999999' 
TABS,ioos:station:wmo:42047:1,2015-09-01T12:30:00Z,27.8966,-93.5973,2.0,1.791893188,20.14985112,-99999.0,'11111222,11111222,99999999' 
TABS,ioos:station:wmo:42047:1,2015-09-01T13:00:00Z,27.8966,-93.5973,2.0,11.71589565,16.89190635,-99999.0,'11111222,11111222,99999999' 
TABS,ioos:station:wmo:42047:1,2015-09-01T13:30:00Z,27.8966,-93.5973,2.0,14.70805616,16.3455988,-99999.0,'11111222,11111222,99999999' 
TABS,ioos:station:wmo:42047:1,2015-09-01T14:00:00Z,27.8966,-93.5973,2.0,14.85487465,17.31881058,-99999.0,'11111222,11111222,99999999' 
TABS,ioos:station:wmo:42047:1,2015-09-01T14:30:00Z,27.8966,-93.5973,2.0,25.26171147,15.13762531,-99999.0,'11111222,11111222,99999999' 
TABS,ioos:station:wmo:42047:1,2015-09-01T15:00:00Z,27.8966,-93.5973,2.0,26.87658583,8.228851682,-99999.0,'11133222,11111222,99999999' 
TABS,ioos:station:wmo:42047:1,2015-09-01T15:30:00Z,27.8966,-93.5973,2.0,34.8169869,2.679720135,-99999.0,'11133222,11111222,99999999' 
TABS,ioos:station:wmo:42047:1,2015-09-01T16:00:00Z,27.8966,-93.5973,2.0,12.52898887,3.22684056,-99999.0,'11133222,11111222,99999999' 
TABS,ioos:station:wmo:42047:1,2015-09-01T16:30:00Z,27.8966,-93.5973,2.0,304.9923593,1.953048899,-99999.0,'11133222,11111222,99999999' 
TABS,ioos:station:wmo:42047:1,2015-09-01T17:00:00Z,27.8966,-93.5973,2.0,53.47613277,6.956126796,-99999.0,'11133222,11111222,99999999' 
TABS,ioos:station:wmo:42047:1,2015-09-01T17:30:00Z,27.8966,-93.5973,2.0,110.057125,7.931008763,-99999.0,'11133222,11111222,99999999' 
TABS,ioos:station:wmo:42047:1,2015-09-01T18:00:00Z,27.8966,-93.5973,2.0,113.8127853,8.941168827,-99999.0,'11133222,11111222,99999999' 
TABS,ioos:station:wmo:42047:1,2015-09-01T18:30:00Z,27.8966,-93.5973,2.0,110.3800479,8.384867322,-99999.0,'11133222,11111222,99999999' 
TABS,ioos:station:wmo:42047:1,2015-09-01T19:00:00Z,27.8966,-93.5973,2.0,137.2138301,5.491247581,-99999.0,'11133222,11111222,99999999' 
TABS,ioos:station:wmo:42047:1,2015-09-01T19:30:00Z,27.8966,-93.5973,2.0,134.8378905,7.502432939,-99999.0,'11133222,11111222,99999999' 
TABS,ioos:station:wmo:42047:1,2015-09-01T20:00:00Z,27.8966,-93.5973,2.0,197.0015171,8.344698916,-99999.0,'11133222,11111222,99999999' 
TABS,ioos:station:wmo:42047:1,2015-09-01T20:30:00Z,27.8966,-93.5973,2.0,237.9341914,12.13062241,-99999.0,'11111222,11111222,99999999' 
TABS,ioos:station:wmo:42047:1,2015-09-01T21:00:00Z,27.8966,-93.5973,2.0,238.3856996,11.63692829,-99999.0,'11111222,11111222,99999999' 
TABS,ioos:station:wmo:42047:1,2015-09-01T21:30:00Z,27.8966,-93.5973,2.0,251.0902952,17.18756818,-99999.0,'11111222,11111222,99999999' 
TABS,ioos:station:wmo:42047:1,2015-09-01T22:00:00Z,27.8966,-93.5973,2.0,260.1371053,14.82915035,-99999.0,'11111222,11111222,99999999' 
TABS,ioos:station:wmo:42047:1,2015-09-01T22:30:00Z,27.8966,-93.5973,2.0,260.9808572,15.50164507,-99999.0,'11111222,11111222,99999999' 
TABS,ioos:station:wmo:42047:1,2015-09-01T23:00:00Z,27.8966,-93.5973,2.0,266.6989878,17.36881113,-99999.0,'11111222,11111222,99999999' 
TABS,ioos:station:wmo:42047:1,2015-09-01T23:30:00Z,27.8966,-93.5973,2.0,281.4586194,14.3969337,-99999.0,'11111222,11111222,99999999' 
TABS,ioos:station:wmo:42047:1,2015-09-02T00:00:00Z,27.8966,-93.5973,2.0,284.5217251,23.4904172,-99999.0,'11111222,11111222,99999999' 
TABS,ioos:station:wmo:42047:1,2015-09-02T00:30:00Z,27.8966,-93.5973,2.0,289.5141187,28.88936483,-99999.0,'11111222,11111222,99999999' 
TABS,ioos:station:wmo:42047:1,2015-09-02T01:00:00Z,27.8966,-93.5973,2.0,294.9311133,12.85814917,-99999.0,'11111222,11111222,99999999' 
TABS,ioos:station:wmo:42047:1,2015-09-02T01:30:00Z,27.8966,-93.5973,2.0,303.1420975,33.61914484,-99999.0,'11111222,11111222,99999999' 
TABS,ioos:station:wmo:42047:1,2015-09-02T02:00:00Z,27.8966,-93.5973,2.0,302.4994858,36.16317049,-99999.0,'11111222,11111222,99999999' 
TABS,ioos:station:wmo:42047:1,2015-09-02T02:30:00Z,27.8966,-93.5973,2.0,304.5317066,40.04535054,-99999.0,'11111222,11111222,99999999' 
TABS,ioos:station:wmo:42047:1,2015-09-02T03:00:00Z,27.8966,-93.5973,2.0,309.7201442,38.49561144,-99999.0,'11111222,11111222,99999999' 
TABS,ioos:station:wmo:42047:1,2015-09-02T03:30:00Z,27.8966,-93.5973,2.0,311.3162213,39.39655061,-99999.0,'11111222,11111222,99999999' 
TABS,ioos:station:wmo:42047:1,2015-09-02T04:00:00Z,27.8966,-93.5973,2.0,316.2663659,41.28390122,-99999.0,'11111222,11111222,99999999' 
TABS,ioos:station:wmo:42047:1,2015-09-02T04:30:00Z,27.8966,-93.5973,2.0,320.4524897,42.121999,-99999.0,'11111222,11111222,99999999' 
TABS,ioos:station:wmo:42047:1,2015-09-02T05:00:00Z,27.8966,-93.5973,2.0,325.4348789,43.57123822,-99999.0,'11111222,11111222,99999999' 
TABS,ioos:station:wmo:42047:1,2015-09-02T05:30:00Z,27.8966,-93.5973,2.0,333.0105272,45.85406961,-99999.0,'11111222,11111222,99999999' 
TABS,ioos:station:wmo:42047:1,2015-09-02T06:00:00Z,27.8966,-93.5973,2.0,331.8270372,43.82183246,-99999.0,'11111222,11111222,99999999' 
TABS,ioos:station:wmo:42047:1,2015-09-02T06:30:00Z,27.8966,-93.5973,2.0,337.4295145,38.58539879,-99999.0,'11111222,11111222,99999999' 
TABS,ioos:station:wmo:42047:1,2015-09-02T07:00:00Z,27.8966,-93.5973,2.0,339.0420768,37.8543802,-99999.0,'11111222,11111222,99999999' 
TABS,ioos:station:wmo:42047:1,2015-09-02T07:30:00Z,27.8966,-93.5973,2.0,345.1597987,37.32505861,-99999.0,'11111222,11111222,99999999' 
TABS,ioos:station:wmo:42047:1,2015-09-02T08:00:00Z,27.8966,-93.5973,2.0,344.213535,36.2056363,-99999.0,'11111222,11111222,99999999' 
TABS,ioos:station:wmo:42047:1,2015-09-02T08:30:00Z,27.8966,-93.5973,2.0,347.8420066,34.0436088,-99999.0,'11111222,11111222,99999999' 
TABS,ioos:station:wmo:42047:1,2015-09-02T09:00:00Z,27.8966,-93.5973,2.0,351.1795637,33.91106162,-99999.0,'11111222,11111222,99999999' 
TABS,ioos:station:wmo:42047:1,2015-09-02T09:30:00Z,27.8966,-93.5973,2.0,355.8917145,32.10249835,-99999.0,'11111222,11111222,99999999' 
TABS,ioos:station:wmo:42047:1,2015-09-02T10:00:00Z,27.8966,-93.5973,2.0,7.355372944,32.72930949,-99999.0,'11111222,11111222,99999999' 
TABS,ioos:station:wmo:42047:1,2015-09-02T10:30:00Z,27.8966,-93.5973,2.0,24.82329278,25.01079767,-99999.0,'11111222,11111222,99999999' 
TABS,ioos:station:wmo:42047:1,2015-09-02T11:00:00Z,27.8966,-93.5973,2.0,19.07498067,17.83952073,-99999.0,'11111222,11111222,99999999' 
TABS,ioos:station:wmo:42047:1,2015-09-02T11:30:00Z,27.8966,-93.5973,2.0,37.1052838,25.32821352,-99999.0,'11111222,11111222,99999999' 
TABS,ioos:station:wmo:42047:1,2015-09-02T12:00:00Z,27.8966,-93.5973,2.0,38.48796914,27.05878785,-99999.0,'11111222,11111222,99999999' 
TABS,ioos:station:wmo:42047:1,2015-09-02T12:30:00Z,27.8966,-93.5973,2.0,44.09619183,28.23828784,-99999.0,'11111222,11111222,99999999' 
TABS,ioos:station:wmo:42047:1,2015-09-02T13:00:00Z,27.8966,-93.5973,2.0,48.87157564,27.2291792,-99999.0,'11111222,11111222,99999999' 
TABS,ioos:station:wmo:42047:1,2015-09-02T13:30:00Z,27.8966,-93.5973,2.0,43.53962613,27.46587883,-99999.0,'11111222,11111222,99999999' 
TABS,ioos:station:wmo:42047:1,2015-09-02T14:00:00Z,27.8966,-93.5973,2.0,58.26414428,26.59670092,-99999.0,'11111222,11111222,99999999' 
TABS,ioos:station:wmo:42047:1,2015-09-02T14:30:00Z,27.8966,-93.5973,2.0,78.48380991,26.1463726,-99999.0,'11111222,11111222,99999999' 
TABS,ioos:station:wmo:42047:1,2015-09-02T15:00:00Z,27.8966,-93.5973,2.0,83.11658277,22.94538952,-99999.0,'11111222,11111222,99999999' 
TABS,ioos:station:wmo:42047:1,2015-09-02T15:30:00Z,27.8966,-93.5973,2.0,68.1182424,33.08351402,-99999.0,'11111222,11111222,99999999' 
TABS,ioos:station:wmo:42047:1,2015-09-02T16:00:00Z,27.8966,-93.5973,2.0,80.93113283,32.80001524,-99999.0,'11111222,11111222,99999999' 
TABS,ioos:station:wmo:42047:1,2015-09-02T16:30:00Z,27.8966,-93.5973,2.0,84.24241163,29.10683768,-99999.0,'11111222,11111222,99999999' 
TABS,ioos:station:wmo:42047:1,2015-09-02T17:00:00Z,27.8966,-93.5973,2.0,73.0195407,26.53689695,-99999.0,'11111222,11111222,99999999' 
TABS,ioos:station:wmo:42047:1,2015-09-02T17:30:00Z,27.8966,-93.5973,2.0,66.05572877,25.6253078,-99999.0,'11111222,11111222,99999999' 
TABS,ioos:station:wmo:42047:1,2015-09-02T18:00:00Z,27.8966,-93.5973,2.0,75.04597387,27.70839945,-99999.0,'11111222,11111222,99999999' 
TABS,ioos:station:wmo:42047:1,2015-09-02T18:30:00Z,27.8966,-93.5973,2.0,65.3437914,23.22774634,-99999.0,'11111222,11111222,99999999' 
TABS,ioos:station:wmo:42047:1,2015-09-02T19:00:00Z,27.8966,-93.5973,2.0,62.95164504,24.91515603,-99999.0,'11111222,11111222,99999999' 
TABS,ioos:station:wmo:42047:1,2015-09-02T19:30:00Z,27.8966,-93.5973,2.0,63.54401325,25.85793689,-99999.0,'11111222,11111222,99999999' 
TABS,ioos:station:wmo:42047:1,2015-09-02T20:00:00Z,27.8966,-93.5973,2.0,77.63603043,20.36226166,-99999.0,'11111222,11111222,99999999' 
TABS,ioos:station:wmo:42047:1,2015-09-02T20:30:00Z,27.8966,-93.5973,2.0,92.20688651,20.5152163,-99999.0,'11111222,11111222,99999999' 
TABS,ioos:station:wmo:42047:1,2015-09-02T21:00:00Z,27.8966,-93.5973,2.0,77.43258663,16.0853971,-99999.0,'11111222,11111222,99999999' 
TABS,ioos:station:wmo:42047:1,2015-09-02T21:30:00Z,27.8966,-93.5973,2.0,86.77423712,19.37069178,-99999.0,'11111222,11111222,99999999' 
TABS,ioos:station:wmo:42047:1,2015-09-02T22:00:00Z,27.8966,-93.5973,2.0,107.440425,18.58434287,-99999.0,'11111222,11111222,99999999' 
TABS,ioos:station:wmo:42047:1,2015-09-02T22:30:00Z,27.8966,-93.5973,2.0,118.0112806,19.84471718,-99999.0,'11111222,11111222,99999999' 
TABS,ioos:station:wmo:42047:1,2015-09-02T23:00:00Z,27.8966,-93.5973,2.0,142.7930839,14.96625872,-99999.0,'11111222,11111222,99999999' 
TABS,ioos:station:wmo:42047:1,2015-09-02T23:30:00Z,27.8966,-93.5973,2.0,200.1735874,17.1948975,-99999.0,'11111222,11111222,99999999' 
TABS,ioos:station:wmo:42047:1,2015-09-03T00:00:00Z,27.8966,-93.5973,2.0,228.4152266,17.44703127,-99999.0,'11111222,11111222,99999999' 
TABS,ioos:station:wmo:42047:1,2015-09-03T00:30:00Z,27.8966,-93.5973,2.0,250.0190195,19.5784601,-99999.0,'11111222,11111222,99999999' 
TABS,ioos:station:wmo:42047:1,2015-09-03T01:00:00Z,27.8966,-93.5973,2.0,271.7609194,13.99660673,-99999.0,'11111222,11111222,99999999' 
TABS,ioos:station:wmo:42047:1,2015-09-03T01:30:00Z,27.8966,-93.5973,2.0,271.4557656,24.0177476,-99999.0,'11111222,11111222,99999999' 
TABS,ioos:station:wmo:42047:1,2015-09-03T02:00:00Z,27.8966,-93.5973,2.0,281.0884583,25.32270523,-99999.0,'11111222,11111222,99999999' 
TABS,ioos:station:wmo:42047:1,2015-09-03T02:30:00Z,27.8966,-93.5973,2.0,284.2468428,27.10353851,-99999.0,'11111222,11111222,99999999' 
TABS,ioos:station:wmo:42047:1,2015-09-03T03:00:00Z,27.8966,-93.5973,2.0,280.40897,26.67901797,-99999.0,'11111222,11111222,99999999' 
TABS,ioos:station:wmo:42047:1,2015-09-03T03:30:00Z,27.8966,-93.5973,2.0,296.5368383,26.90437325,-99999.0,'11111222,11111222,99999999' 
TABS,ioos:station:wmo:42047:1,2015-09-03T04:00:00Z,27.8966,-93.5973,2.0,307.0624048,28.62216099,-99999.0,'11111222,11111222,99999999' 
TABS,ioos:station:wmo:42047:1,2015-09-03T04:30:00Z,27.8966,-93.5973,2.0,314.3273849,25.88896483,-99999.0,'11111222,11111222,99999999' 
TABS,ioos:station:wmo:42047:1,2015-09-03T05:00:00Z,27.8966,-93.5973,2.0,340.8644092,25.07557577,-99999.0,'11111222,11111222,99999999' 
TABS,ioos:station:wmo:42047:1,2015-09-03T05:30:00Z,27.8966,-93.5973,2.0,349.5656473,25.67459834,-99999.0,'11111222,11111222,99999999' 
TABS,ioos:station:wmo:42047:1,2015-09-03T06:00:00Z,27.8966,-93.5973,2.0,348.1389719,30.16405808,-99999.0,'11111222,11111222,99999999' 
TABS,ioos:station:wmo:42047:1,2015-09-03T06:30:00Z,27.8966,-93.5973,2.0,348.0484999,29.93900633,-99999.0,'11111222,11111222,99999999' 
TABS,ioos:station:wmo:42047:1,2015-09-03T07:00:00Z,27.8966,-93.5973,2.0,347.5307655,27.23237962,-99999.0,'11111222,11111222,99999999' 
TABS,ioos:station:wmo:42047:1,2015-09-03T07:30:00Z,27.8966,-93.5973,2.0,349.2828334,28.44620537,-99999.0,'11111222,11111222,99999999' 
TABS,ioos:station:wmo:42047:1,2015-09-03T08:00:00Z,27.8966,-93.5973,2.0,353.8557251,32.97946331,-99999.0,'11111222,11111222,99999999' 
TABS,ioos:station:wmo:42047:1,2015-09-03T08:30:00Z,27.8966,-93.5973,2.0,350.3989961,28.47892027,-99999.0,'11111222,11111222,99999999' 
TABS,ioos:station:wmo:42047:1,2015-09-03T09:00:00Z,27.8966,-93.5973,2.0,349.5702163,27.84000718,-99999.0,'11111222,11111222,99999999' 
TABS,ioos:station:wmo:42047:1,2015-09-03T09:30:00Z,27.8966,-93.5973,2.0,353.5088074,26.35899277,-99999.0,'11111222,11111222,99999999' 
TABS,ioos:station:wmo:42047:1,2015-09-03T10:00:00Z,27.8966,-93.5973,2.0,357.2483961,33.11818987,-99999.0,'11111222,11111222,99999999' 
TABS,ioos:station:wmo:42047:1,2015-09-03T10:30:00Z,27.8966,-93.5973,2.0,356.8538957,32.24861082,-99999.0,'11111222,11111222,99999999' 
TABS,ioos:station:wmo:42047:1,2015-09-03T11:00:00Z,27.8966,-93.5973,2.0,0.087186704,26.35003036,-99999.0,'11111222,11111222,99999999' 
TABS,ioos:station:wmo:42047:1,2015-09-03T11:30:00Z,27.8966,-93.5973,2.0,5.052034901,21.46337578,-99999.0,'11111222,11111222,99999999' 
TABS,ioos:station:wmo:42047:1,2015-09-03T12:00:00Z,27.8966,-93.5973,2.0,4.717702381,27.84432797,-99999.0,'11111222,11111222,99999999' 
TABS,ioos:station:wmo:42047:1,2015-09-03T12:30:00Z,27.8966,-93.5973,2.0,1.529530676,25.47907573,-99999.0,'11111222,11111222,99999999' 
TABS,ioos:station:wmo:42047:1,2015-09-03T13:00:00Z,27.8966,-93.5973,2.0,4.986174568,21.40098129,-99999.0,'11111222,11111222,99999999' 
TABS,ioos:station:wmo:42047:1,2015-09-03T13:30:00Z,27.8966,-93.5973,2.0,19.70070784,17.3240209,-99999.0,'11111222,11111222,99999999' 
TABS,ioos:station:wmo:42047:1,2015-09-03T14:00:00Z,27.8966,-93.5973,2.0,15.87685556,13.74430791,-99999.0,'11111222,11111222,99999999' 
TABS,ioos:station:wmo:42047:1,2015-09-03T14:30:00Z,27.8966,-93.5973,2.0,23.72854605,10.93435412,-99999.0,'11111222,11111222,99999999' 
TABS,ioos:station:wmo:42047:1,2015-09-03T15:00:00Z,27.8966,-93.5973,2.0,25.08037884,9.837530178,-99999.0,'11133222,11111222,99999999' 
TABS,ioos:station:wmo:42047:1,2015-09-03T15:30:00Z,27.8966,-93.5973,2.0,32.90537644,7.086959856,-99999.0,'11133222,11111222,99999999' 
TABS,ioos:station:wmo:42047:1,2015-09-03T16:00:00Z,27.8966,-93.5973,2.0,61.22107563,8.682424777,-99999.0,'11133222,11111222,99999999' 
TABS,ioos:station:wmo:42047:1,2015-09-03T16:30:00Z,27.8966,-93.5973,2.0,26.02048637,5.174495144,-99999.0,'11133222,11111222,99999999' 
TABS,ioos:station:wmo:42047:1,2015-09-03T17:00:00Z,27.8966,-93.5973,2.0,31.8070072,2.447549795,-99999.0,'11133222,11111222,99999999' 
TABS,ioos:station:wmo:42047:1,2015-09-03T17:30:00Z,27.8966,-93.5973,2.0,1.975139851,1.16068945,-99999.0,'11133222,11111222,99999999' 
TABS,ioos:station:wmo:42047:1,2015-09-03T18:00:00Z,27.8966,-93.5973,2.0,305.11235,2.347104599,-99999.0,'11133222,11111222,99999999' 
TABS,ioos:station:wmo:42047:1,2015-09-03T18:30:00Z,27.8966,-93.5973,2.0,284.9030403,2.566320323,-99999.0,'11133222,11111222,99999999' 
TABS,ioos:station:wmo:42047:1,2015-09-03T19:00:00Z,27.8966,-93.5973,2.0,300.1261591,4.104400078,-99999.0,'11133222,11111222,99999999' 
TABS,ioos:station:wmo:42047:1,2015-09-03T19:30:00Z,27.8966,-93.5973,2.0,318.8325765,2.962330164,-99999.0,'11133222,11111222,99999999' 
TABS,ioos:station:wmo:42047:1,2015-09-03T20:00:00Z,27.8966,-93.5973,2.0,312.2988718,4.650860136,-99999.0,'11133222,11111222,99999999' 
TABS,ioos:station:wmo:42047:1,2015-09-03T20:30:00Z,27.8966,-93.5973,2.0,289.5531486,6.483903145,-99999.0,'11133222,11111222,99999999' 
TABS,ioos:station:wmo:42047:1,2015-09-03T21:00:00Z,27.8966,-93.5973,2.0,289.2080534,9.848228267,-99999.0,'11133222,11111222,99999999' 
TABS,ioos:station:wmo:42047:1,2015-09-03T21:30:00Z,27.8966,-93.5973,2.0,291.5167833,9.706415404,-99999.0,'11133222,11111222,99999999' 
TABS,ioos:station:wmo:42047:1,2015-09-03T22:00:00Z,27.8966,-93.5973,2.0,299.5376171,10.95357932,-99999.0,'11111222,11111222,99999999' 
TABS,ioos:station:wmo:42047:1,2015-09-03T22:30:00Z,27.8966,-93.5973,2.0,291.8543057,10.127828,-99999.0,'11111222,11111222,99999999' 
TABS,ioos:station:wmo:42047:1,2015-09-03T23:00:00Z,27.8966,-93.5973,2.0,318.7508339,11.02619608,-99999.0,'11111222,11111222,99999999' 
TABS,ioos:station:wmo:42047:1,2015-09-03T23:30:00Z,27.8966,-93.5973,2.0,313.1414035,11.55313377,-99999.0,'11111222,11111222,99999999' 
TABS,ioos:station:wmo:42047:1,2015-09-04T00:00:00Z,27.8966,-93.5973,2.0,320.2271364,13.58343476,-99999.0,'11111222,11111222,99999999' 
TABS,ioos:station:wmo:42047:1,2015-09-04T00:30:00Z,27.8966,-93.5973,2.0,320.1014509,14.15577621,-99999.0,'11111222,11111222,99999999' 
TABS,ioos:station:wmo:42047:1,2015-09-04T01:00:00Z,27.8966,-93.5973,2.0,297.1319739,7.236269757,-99999.0,'11133222,11111222,99999999' 
TABS,ioos:station:wmo:42047:1,2015-09-04T01:30:00Z,27.8966,-93.5973,2.0,328.3580729,16.22147342,-99999.0,'11111222,11111222,99999999' 
TABS,ioos:station:wmo:42047:1,2015-09-04T02:00:00Z,27.8966,-93.5973,2.0,323.9493612,16.09164379,-99999.0,'11111222,11111222,99999999' 
TABS,ioos:station:wmo:42047:1,2015-09-04T02:30:00Z,27.8966,-93.5973,2.0,335.9863852,16.97964075,-99999.0,'11111222,11111222,99999999' 
TABS,ioos:station:wmo:42047:1,2015-09-04T03:00:00Z,27.8966,-93.5973,2.0,344.8636466,17.80782412,-99999.0,'11111222,11111222,99999999' 
TABS,ioos:station:wmo:42047:1,2015-09-04T03:30:00Z,27.8966,-93.5973,2.0,347.6424709,24.34404445,-99999.0,'11111222,11111222,99999999' 
TABS,ioos:station:wmo:42047:1,2015-09-04T04:00:00Z,27.8966,-93.5973,2.0,336.581246,23.54998301,-99999.0,'11111222,11111222,99999999' 
TABS,ioos:station:wmo:42047:1,2015-09-04T04:30:00Z,27.8966,-93.5973,2.0,337.289942,18.02771477,-99999.0,'11111222,11111222,99999999' 
TABS,ioos:station:wmo:42047:1,2015-09-04T05:00:00Z,27.8966,-93.5973,2.0,341.9493426,19.81527693,-99999.0,'11111222,11111222,99999999' 
TABS,ioos:station:wmo:42047:1,2015-09-04T05:30:00Z,27.8966,-93.5973,2.0,339.5040965,21.27692177,-99999.0,'11111222,11111222,99999999' 
TABS,ioos:station:wmo:42047:1,2015-09-04T06:00:00Z,27.8966,-93.5973,2.0,343.7938752,21.71280958,-99999.0,'11111222,11111222,99999999' 
TABS,ioos:station:wmo:42047:1,2015-09-04T06:30:00Z,27.8966,-93.5973,2.0,350.5599184,21.39981776,-99999.0,'11111222,11111222,99999999' 
TABS,ioos:station:wmo:42047:1,2015-09-04T07:00:00Z,27.8966,-93.5973,2.0,347.081692,20.88871705,-99999.0,'11111222,11111222,99999999' 
TABS,ioos:station:wmo:42047:1,2015-09-04T07:30:00Z,27.8966,-93.5973,2.0,359.2492911,20.60176934,-99999.0,'11111222,11144222,99999999' 
TABS,ioos:station:wmo:42047:1,2015-09-04T08:00:00Z,27.8966,-93.5973,2.0,1.765613239,20.4497066,-99999.0,'11111222,11111222,99999999' 
TABS,ioos:station:wmo:42047:1,2015-09-04T08:30:00Z,27.8966,-93.5973,2.0,0.992448207,24.25363684,-99999.0,'11111222,11111222,99999999' 
TABS,ioos:station:wmo:42047:1,2015-09-04T09:00:00Z,27.8966,-93.5973,2.0,2.752689422,27.07123196,-99999.0,'11111222,11111222,99999999' 
TABS,ioos:station:wmo:42047:1,2015-09-04T09:30:00Z,27.8966,-93.5973,2.0,0.876371231,23.5427526,-99999.0,'11111222,11111222,99999999' 
TABS,ioos:station:wmo:42047:1,2015-09-04T10:00:00Z,27.8966,-93.5973,2.0,4.533887951,24.41639818,-99999.0,'11111222,11111222,99999999' 
TABS,ioos:station:wmo:42047:1,2015-09-04T10:30:00Z,27.8966,-93.5973,2.0,7.620303223,20.81380551,-99999.0,'11111222,11111222,99999999' 
TABS,ioos:station:wmo:42047:1,2015-09-04T11:00:00Z,27.8966,-93.5973,2.0,3.078882378,15.08176714,-99999.0,'11111222,11111222,99999999' 
TABS,ioos:station:wmo:42047:1,2015-09-04T11:30:00Z,27.8966,-93.5973,2.0,6.732075144,7.592344829,-99999.0,'11133222,11111222,99999999' 
TABS,ioos:station:wmo:42047:1,2015-09-04T12:00:00Z,27.8966,-93.5973,2.0,5.346440341,16.74283429,-99999.0,'11111222,11111222,99999999' 
TABS,ioos:station:wmo:42047:1,2015-09-04T12:30:00Z,27.8966,-93.5973,2.0,24.53096346,22.9296751,-99999.0,'11111222,11111222,99999999' 
TABS,ioos:station:wmo:42047:1,2015-09-04T13:00:00Z,27.8966,-93.5973,2.0,21.5743437,21.53897166,-99999.0,'11111222,11111222,99999999' 
TABS,ioos:station:wmo:42047:1,2015-09-04T13:30:00Z,27.8966,-93.5973,2.0,25.78495686,18.3911283,-99999.0,'11111222,11111222,99999999' 
TABS,ioos:station:wmo:42047:1,2015-09-04T14:00:00Z,27.8966,-93.5973,2.0,25.57082561,14.68870655,-99999.0,'11111222,11111222,99999999' 
TABS,ioos:station:wmo:42047:1,2015-09-04T14:30:00Z,27.8966,-93.5973,2.0,33.03926787,14.15963629,-99999.0,'11111222,11111222,99999999' 
TABS,ioos:station:wmo:42047:1,2015-09-04T15:00:00Z,27.8966,-93.5973,2.0,37.41214578,12.04853933,-99999.0,'11111222,11111222,99999999' 
TABS,ioos:station:wmo:42047:1,2015-09-04T15:30:00Z,27.8966,-93.5973,2.0,44.61321602,11.51903208,-99999.0,'11111222,11111222,99999999' 
TABS,ioos:station:wmo:42047:1,2015-09-04T16:00:00Z,27.8966,-93.5973,2.0,46.98186285,12.2685696,-99999.0,'11111222,11111222,99999999' 